Location: Ivrea
(45.4365°N, 7.8791°E)
Time: 11:20:21
(UTC+01:00)

BlueWalker 3 - Pass Details

Date: 06 October 2024
Orbit: 470 x 481 km, 53.2° (Epoch: 11 November)

Event Time Altitude Azimuth Distance (km) Brightness Sun altitude
Exits shadow 04:58:25 16° 122° (ESE) 1,282 4.3 -27.5°
Drops below altitude 10° 05:00:23 10° 90° (E) 1,629 5.4 -27.2°
Sets 05:03:06 0° 69° (ENE) 2,511 6.8 -26.7°
